Cancún International Airport
MMUN : now visible

Airfield :











YOU CAN JOIN US ON...

 
LOGIN :

Register | Disclaimer

   EN    FR    IT 

 









Legend :    VFR   Marginal VFR   IFR   Intensive IFR   Very Intensive IFR
Visi :
Ceiling :
>= 8 km
>= 3000ft
5 to 8 km
1000 to 3000 ft
1500m to 5 km
500 to 1000 ft
800 to 1500m
200 to 500 ft
< 800m
< 200 ft
Symbols :   Thunderstorms  Fog  Heavy snow  Heavy precipitations  Wind > 20 kt






- Airport Elevation : 20 ft
- IATA code : CUN


MMUN - Cancún International

CURRENT METAR :
  • 280743Z 15009KT 7SM FEW015 28/25 A2980 RMK 8/500

EXPIRED METARs :
  • 280644Z 15010KT 7SM FEW015 28/26 A2980 RMK 8/500
  • 280547Z 16010KT 7SM SKC 29/26 A2980 RMK SLP089 57017 980 SC

TAF COR TAF MMUN
Valid from the 28 at 06:00 until the 29 at 12:00 UTC


280339Z 2806/2912 15006KT P6SM SCT015 TX32/2819Z TN25/2812Z
FM281800 16012KT P6SM BKN015 BKN250
FM282300 33014KT 5SM -RA BKN015 OVC080
TEMPO 2900/2903 3SM TSRA BKN015CB
FM290900 35012KT P6SM BKN015 BKN080
FM291100 36008KT P6SM SCT015 BKN250
MMFR FIR / North America



MET'MAP, your aeronautical weather chart ! - Copyright ORBIFLY December 2007 - Disclaimer

ORBIFLY MET'MAP TEAM :

Programming & Development : Alexandra Zaïnal
Concept & original design : Baudouin d'Aumeries
Assistance for programming : Marc-Olivier Méhu
Technical & hardware support : Manuel Goepfert

Contact : metmap@orbifly.com




SOURCES & CREDITS :

   NOAA       Earth
Advisory